[[{"header":{"parameterUnit":"m.s-1","parameterCategory":1,"la1":30.2991,"la2":30.254,"lo1":-89.0895,"lo2":-89.0444,"dy":0.0017,"dx":0.0017,"nx":28,"ny":28,"refTime":"2024-02-20T09:00:00:Z","depth":0,"parameterNumber":2,"parameterNumberName":"U-component_of_WINDS"},"data":[0,0,0,0,0,0,0,0,0,0,0,0,0,0,0,0,0,0,0,0,0,0,0,0,0,0,0,0,0,0,0,0,0,0,0,0,0,0,0,0,0,0,0,0,0,0,0,0,0,0,0,0,0,0,0,0,0,0,-0.7923,-0.7922,0,-0.7885,-0.7885,-0.7885,-0.7848,-0.7847,-0.7847,-0.7846,-0.7809,-0.7808,-0.7808,0,0,0,0,0,0,0,0,0,0,0,0,0,-0.7963,-0.7963,-0.7923,-0.7922,-0.7922,-0.7885,-0.7885,-0.7884,-0.7848,-0.7847,-0.7847,-0.7846,-0.7809,-0.7808,-0.7808,0,0,0,0,0,0,0,0,0,0,0,0,0,-0.7938,-0.7963,-0.7923,-0.7899,-0.7897,-0.7886,-0.7885,-0.7884,-0.7848,-0.7847,-0.7847,-0.7846,-0.7809,-0.7808,-0.7808,-0.7817,0,0,-0.7805,-0.7805,0,0,0,0,0,0,0,0,-0.7939,-0.7936,-0.7903,-0.7901,-0.7898,-0.7871,-0.7885,-0.7862,-0.7848,-0.7867,-0.7846,-0.7846,-0.783,-0.7827,-0.7822,-0.7815,-0.7814,-0.7805,-0.7804,-0.7804,-0.7804,0,0,0,0,0,0,0,-0.7941,-0.7938,-0.7908,-0.7903,-0.79,-0.7891,-0.7886,-0.7881,-0.7853,-0.7865,-0.7862,-0.7858,-0.7828,-0.7823,-0.7821,-0.7813,-0.7805,-0.7804,-0.7804,-0.7803,-0.7812,-0.7813,0,0,0,0,0,0,-0.7946,-0.794,-0.7909,-0.7907,-0.7917,-0.7891,-0.7886,-0.788,-0.7853,-0.7848,-0.7859,-0.7857,-0.7825,-0.7822,-0.7819,-0.7828,-0.7804,-0.7803,-0.7803,-0.7812,-0.7812,-0.7813,0,0,0,0,0,0,-0.7947,-0.7944,-0.7911,-0.7922,-0.7918,-0.7891,-0.7885,-0.788,-0.7874,-0.7848,-0.7843,-0.7858,-0.7824,-0.7821,-0.7818,-0.7826,-0.7803,-0.7802,-0.7811,-0.7812,-0.7813,-0.7846,0,0,0,0,0,0,-0.7949,-0.7945,-0.7948,-0.7923,-0.7917,-0.7909,-0.7885,-0.788,-0.7873,-0.7869,-0.7846,-0.7842,-0.7823,-0.7819,-0.7817,-0.7825,-0.7802,-0.781,-0.7811,-0.7812,-0.7844,-0.7848,-0.7852,0,0,0,0,0,-0.795,-0.7959,-0.7948,-0.7944,-0.792,-0.791,-0.7907,-0.7885,-0.7874,-0.7876,-0.786,-0.7842,-0.7826,-0.7819,-0.7816,-0.7824,-0.7809,-0.7811,-0.7812,-0.7843,-0.7848,-0.7852,0,0,0,0,0,0,-0.7985,-0.7955,-0.7943,-0.7943,-0.7929,-0.7904,-0.7907,-0.7891,-0.788,-0.7878,-0.7852,-0.7847,-0.7847,-0.7835,-0.7828,-0.7832,-0.7815,-0.7816,-0.7839,-0.7844,-0.7847,-0.785,-0.7801,0,0,0,0,0,-0.7993,-0.7987,-0.7961,-0.7964,-0.7958,-0.7934,-0.7928,-0.7913,-0.7898,-0.7892,-0.7875,-0.7861,-0.7853,-0.7848,-0.7839,-0.7843,-0.7837,-0.7847,-0.7851,-0.7854,-0.7855,-0.7856,-0.786,-0.7819,-0.7819,-0.7819,0,0,-0.8009,-0.7991,-0.7989,-0.797,-0.7958,-0.7953,-0.7929,-0.7924,-0.792,-0.7891,-0.7887,-0.7875,-0.7858,-0.7858,-0.7858,-0.7849,-0.7866,-0.7856,-0.7859,-0.7858,-0.7858,-0.7862,-0.7866,-0.782,-0.782,-0.7819,0,0,-0.8034,-0.8021,-0.8022,-0.801,-0.7991,-0.7976,-0.7976,-0.7953,-0.7943,-0.7939,-0.7917,-0.7913,-0.7899,-0.7887,-0.788,-0.7903,-0.7886,-0.7901,-0.792,-0.7922,-0.7925,-0.7928,-0.7935,-0.7939,-0.7902,-0.7902,-0.7902,0,-0.8056,-0.8047,-0.8024,-0.8021,-0.8013,-0.7987,-0.7988,-0.7978,-0.7957,-0.7953,-0.7943,-0.7926,-0.7913,-0.791,-0.7916,-0.7911,-0.791,-0.7903,-0.7926,-0.7929,-0.7931,-0.7938,-0.7941,-0.7904,-0.7904,-0.7904,-0.7903,0,-0.8075,-0.8069,-0.8072,-0.8052,-0.8045,-0.8044,-0.8022,-0.8017,-0.8003,-0.7988,-0.7985,-0.7968,-0.7955,-0.7954,-0.794,-0.795,-0.7945,-0.7931,-0.7914,-0.7937,-0.7943,-0.7946,-0.7907,-0.7906,-0.7905,-0.7905,0,0,-0.812,-0.8089,-0.809,-0.8081,-0.8059,-0.8054,-0.8053,-0.804,-0.8037,-0.8024,-0.8022,-0.8011,-0.7999,-0.799,-0.7975,-0.7977,-0.7995,-0.7963,-0.7962,-0.7969,-0.8005,-0.8014,-0.8018,-0.7985,-0.7985,-0.7986,-0.8006,0,-0.8141,-0.8135,-0.8115,-0.8115,-0.811,-0.8086,-0.8084,-0.8071,-0.8057,-0.8051,-0.8036,-0.8029,-0.8013,-0.8008,-0.8009,-0.7993,-0.8002,-0.7991,-0.7982,-0.7982,-0.7986,-0.8021,-0.8031,-0.8051,-0.8008,-0.8009,-0.8009,0,-0.8165,-0.8154,-0.8153,-0.8132,-0.8129,-0.8127,-0.8114,-0.8109,-0.8093,-0.8084,-0.8075,-0.8058,-0.8055,-0.804,-0.8035,-0.8028,-0.8023,-0.8015,-0.8016,-0.8013,-0.7996,-0.8018,-0.8057,-0.8059,-0.8013,-0.8012,-0.8012,0,-0.8197,-0.8182,-0.818,-0.8173,-0.8148,-0.8148,-0.8138,-0.8122,-0.8116,-0.8105,-0.81,-0.809,-0.8083,-0.8075,-0.8056,-0.8047,-0.8054,-0.8037,-0.8045,-0.8046,-0.8047,-0.8047,-0.8084,-0.8046,-0.8046,-0.8046,-0.8046,0,-0.8223,-0.8223,-0.8194,-0.8192,-0.8192,-0.817,-0.8171,-0.8158,-0.8145,-0.8141,-0.812,-0.8116,-0.8092,-0.8086,-0.8071,-0.8069,-0.8067,-0.8059,-0.8055,-0.806,-0.8061,-0.8056,-0.8054,-0.8046,-0.8046,-0.8046,-0.8046,0,-0.8258,-0.8238,-0.8234,-0.8211,-0.8206,-0.8207,-0.8187,-0.8185,-0.8171,-0.8166,-0.8164,-0.8142,-0.8134,-0.8114,-0.8101,-0.8091,-0.8093,-0.8086,-0.8098,-0.8095,-0.8105,-0.8104,-0.8139,-0.8142,-0.8103,-0.8103,-0.8104,0,-0.8275,-0.8274,-0.8252,-0.8247,-0.8238,-0.8231,-0.8225,-0.8203,-0.8197,-0.8181,-0.8181,-0.8171,-0.8162,-0.8151,-0.8134,-0.8124,-0.8116,-0.8129,-0.8114,-0.8119,-0.8115,-0.8115,-0.8114,-0.8132,-0.8132,-0.8133,-0.8133,0,-0.8306,-0.8297,-0.8288,-0.8277,-0.8269,-0.8259,-0.8248,-0.8246,-0.8222,-0.8216,-0.8208,-0.8201,-0.8188,-0.8179,-0.8166,-0.8156,-0.814,-0.8138,-0.8139,-0.8144,-0.8151,-0.8146,-0.8106,-0.8137,-0.8136,-0.8136,-0.8136,-0.8136,-0.8332,-0.8331,-0.8315,-0.8306,-0.8295,-0.8285,-0.8282,-0.8268,-0.826,-0.8247,-0.8236,-0.8228,-0.8214,-0.8195,-0.8187,-0.8181,-0.8173,-0.8175,-0.8175,-0.8176,-0.8178,-0.8153,-0.8179,-0.8179,-0.8178,-0.8178,-0.8178,0,-0.8362,-0.8351,-0.8343,-0.8328,-0.8321,-0.8307,-0.8294,-0.829,-0.8283,-0.8271,-0.8263,-0.8253,-0.8244,-0.8227,-0.8217,-0.8216,-0.8208,-0.8214,-0.8213,-0.8211,-0.8186,-0.8185,-0.822,-0.822,-0.822,-0.822,-0.822,-0.822,-0.8377,-0.8374,-0.8363,-0.8354,-0.8343,-0.8335,-0.8329,-0.832,-0.831,-0.83,-0.8292,-0.8281,-0.8267,-0.8256,-0.8247,-0.8242,-0.8239,-0.8247,-0.824,-0.8216,-0.8213,-0.8209,-0.8208,-0.8246,-0.8246,-0.8265,-0.8265,-0.8265]},{"header":{"parameterUnit":"m.s-1","parameterCategory":1,"la1":30.2991,"la2":30.254,"lo1":-89.0895,"lo2":-89.0444,"dy":0.0017,"dx":0.0017,"nx":28,"ny":28,"refTime":"2024-02-20T09:00:00:Z","depth":0,"parameterNumber":3,"parameterNumberName":"V-component_of_WINDS"},"data":[0,0,0,0,0,0,0,0,0,0,0,0,0,0,0,0,0,0,0,0,0,0,0,0,0,0,0,0,0,0,0,0,0,0,0,0,0,0,0,0,0,0,0,0,0,0,0,0,0,0,0,0,0,0,0,0,0,0,3.6167,3.6166,0,3.6088,3.6087,3.6086,3.6081,3.6082,3.6083,3.6084,3.5995,3.5992,3.5988,0,0,0,0,0,0,0,0,0,0,0,0,0,3.6309,3.6306,3.6167,3.6166,3.6165,3.6088,3.6087,3.6085,3.6081,3.6082,3.6083,3.6084,3.5996,3.5992,3.5988,0,0,0,0,0,0,0,0,0,0,0,0,0,3.624,3.6306,3.6167,3.6154,3.6152,3.6088,3.6087,3.6085,3.6081,3.6082,3.6084,3.6085,3.5997,3.5992,3.5988,3.5929,0,0,3.5973,3.5971,0,0,0,0,0,0,0,0,3.6244,3.6235,3.6157,3.6155,3.6152,3.6096,3.6104,3.6033,3.608,3.6107,3.6084,3.6086,3.6027,3.602,3.6001,3.5925,3.5921,3.5972,3.5969,3.5967,3.5966,0,0,0,0,0,0,0,3.6249,3.6238,3.6135,3.6156,3.6153,3.615,3.6141,3.609,3.606,3.6105,3.6105,3.6096,3.6026,3.6006,3.5999,3.592,3.5972,3.5968,3.5965,3.5963,3.5794,3.5793,0,0,0,0,0,0,3.6257,3.6242,3.6138,3.6133,3.6203,3.6146,3.6137,3.6112,3.6061,3.6054,3.6095,3.6096,3.6014,3.6005,3.5996,3.5926,3.5967,3.5963,3.596,3.5796,3.5794,3.5792,0,0,0,0,0,0,3.626,3.6248,3.6141,3.6188,3.6174,3.6142,3.6115,3.611,3.6091,3.6053,3.6047,3.6081,3.6014,3.6003,3.5947,3.5923,3.5961,3.5956,3.5798,3.5795,3.5793,3.5785,0,0,0,0,0,0,3.6264,3.6249,3.6228,3.6187,3.6171,3.6095,3.6113,3.6108,3.6083,3.6084,3.6038,3.6031,3.6015,3.5954,3.5942,3.5917,3.5952,3.58,3.5797,3.5794,3.5788,3.5783,3.5779,0,0,0,0,0,3.6269,3.6227,3.6227,3.6214,3.6145,3.6094,3.6085,3.6068,3.6081,3.6059,3.6035,3.6033,3.5928,3.5949,3.5935,3.5908,3.5801,3.5798,3.5794,3.5789,3.5784,3.5779,0,0,0,0,0,0,3.6262,3.6221,3.6221,3.6164,3.6133,3.6093,3.6065,3.6062,3.6025,3.6027,3.6006,3.5996,3.5941,3.5918,3.5943,3.585,3.5866,3.5859,3.5867,3.5861,3.5857,3.5864,3.5948,0,0,0,0,0,3.6254,3.6219,3.6184,3.6137,3.6122,3.6096,3.6073,3.6064,3.603,3.6016,3.5987,3.5952,3.5912,3.5885,3.5845,3.5784,3.5774,3.5759,3.5755,3.5751,3.5746,3.5714,3.5707,3.5781,3.5781,3.5781,0,0,3.6236,3.621,3.6188,3.6135,3.611,3.6072,3.6085,3.6043,3.6015,3.6008,3.5955,3.5933,3.5893,3.5835,3.5808,3.5815,3.5724,3.5747,3.5745,3.5741,3.571,3.5703,3.5696,3.5778,3.5779,3.5779,0,0,3.6186,3.6162,3.6122,3.6097,3.606,3.6044,3.6034,3.5996,3.5982,3.5929,3.5924,3.5888,3.5818,3.579,3.5767,3.5709,3.5706,3.5696,3.5674,3.5642,3.5637,3.5631,3.5612,3.5605,3.5691,3.5691,3.5691,0,3.6168,3.6114,3.61,3.6061,3.6038,3.6033,3.5992,3.5967,3.5918,3.5901,3.591,3.5824,3.5796,3.5733,3.5719,3.57,3.5688,3.5701,3.5639,3.5634,3.5628,3.5609,3.5602,3.569,3.569,3.569,3.569,0,3.6094,3.6057,3.6028,3.5985,3.5958,3.5917,3.5897,3.5871,3.5864,3.5847,3.5793,3.576,3.5714,3.5698,3.5689,3.5634,3.564,3.5644,3.5659,3.5621,3.5603,3.5595,3.5689,3.5689,3.5689,3.5689,0,0,3.6035,3.5988,3.5978,3.5959,3.5919,3.5889,3.5847,3.5806,3.5785,3.5751,3.5716,3.5658,3.5663,3.5637,3.5625,3.5597,3.5555,3.5605,3.5604,3.5598,3.5493,3.5491,3.5483,3.5553,3.5552,3.555,3.5497,0,3.5982,3.5912,3.59,3.5839,3.5804,3.58,3.5765,3.5735,3.5718,3.5684,3.5664,3.5624,3.5633,3.5617,3.559,3.5566,3.5534,3.557,3.5519,3.5518,3.5531,3.5473,3.547,3.5421,3.549,3.5488,3.5487,0,3.5909,3.5878,3.5814,3.5782,3.5766,3.5735,3.5697,3.5666,3.5632,3.5621,3.5594,3.5586,3.5542,3.556,3.5499,3.5524,3.5502,3.5488,3.5485,3.548,3.5501,3.5467,3.5405,3.5398,3.5476,3.5477,3.5478,0,3.5875,3.5816,3.5771,3.5755,3.5715,3.5694,3.5675,3.5644,3.562,3.5586,3.5571,3.5531,3.5509,3.5478,3.5459,3.5473,3.54,3.5416,3.5389,3.539,3.5374,3.5376,3.5308,3.5359,3.5359,3.5359,3.5359,0,3.5817,3.5778,3.5756,3.5728,3.5685,3.5671,3.5627,3.5609,3.5581,3.5549,3.5541,3.5511,3.5488,3.5453,3.5438,3.539,3.538,3.5369,3.5366,3.5371,3.5372,3.5357,3.536,3.5357,3.5358,3.5358,3.5358,0,3.5771,3.5755,3.5706,3.5673,3.5664,3.5634,3.5605,3.5577,3.5561,3.552,3.5509,3.5482,3.5442,3.542,3.5368,3.5358,3.5305,3.5303,3.5318,3.5316,3.5292,3.5295,3.5213,3.5202,3.5259,3.5258,3.5258,0,3.5735,3.5706,3.5672,3.5651,3.5634,3.56,3.5578,3.5562,3.5538,3.55,3.5477,3.5437,3.5404,3.5339,3.5313,3.5274,3.5271,3.5245,3.5265,3.5271,3.5272,3.5275,3.5272,3.5242,3.5241,3.5241,3.524,0,3.5674,3.5668,3.5638,3.5604,3.5579,3.5551,3.5523,3.5506,3.5486,3.5459,3.542,3.5395,3.5344,3.5304,3.5263,3.5242,3.5237,3.5235,3.5227,3.5231,3.5242,3.5237,3.5309,3.5236,3.5237,3.5237,3.5237,3.5237,3.5633,3.5608,3.5581,3.5547,3.5526,3.5501,3.5474,3.5456,3.5424,3.5383,3.5375,3.5334,3.5302,3.5247,3.5225,3.5191,3.5196,3.5184,3.5181,3.5179,3.5179,3.5247,3.5183,3.5183,3.5183,3.5183,3.5183,0,3.5573,3.5556,3.5526,3.5489,3.5463,3.5464,3.5434,3.5411,3.5376,3.5348,3.5317,3.5272,3.5234,3.5206,3.5167,3.5145,3.5142,3.5136,3.5137,3.5133,3.5176,3.5187,3.5139,3.5139,3.5139,3.5139,3.5139,3.5139,3.5539,3.5497,3.5488,3.5436,3.5418,3.538,3.5363,3.534,3.5318,3.527,3.5239,3.5223,3.5195,3.5154,3.5119,3.5112,3.5098,3.5091,3.5084,3.5125,3.5129,3.5134,3.5145,3.5088,3.5088,3.5044,3.5044,3.5043]}]]